Terminal Aerodrome Forecast
Issued by NWS

Home | Current Version | Previous Version | Text Only | Print | Product List | Glossary On
Versions: 1 2 3 4 5 6 7 8 9 10 11 12 13
000
FTUS46 KSTO 271723
TAFRBL
TAF
KRBL 271723Z 2718/2818 VRB05KT P6SM SKC
     FM272200 17010KT P6SM SCT250
     FM280300 VRB04KT P6SM FEW250=

USA.gov is the U.S. government's official web portal to all federal, state and local government web resources and services.